Lapse_Rate
6.8 6.8 6.7 6.6 6.8 6.9 6.9 6.8 6.2 5.9 5.7 6.1 6.4 6.5 5.9 6.6 7.1 6.9 6.8 6.9 6.9 6.8 6.7 6.6 6.6 6.5 6.3 6.2 6.2 6.0 5.9 5.9 5.9 5.9 5.9 5.9 5.8 5.8 5.8 5.8 5.9 5.9 5.9
6.8 6.6 6.5 6.6 6.7 6.8 7.0 6.7 6.4 6.1 5.9 6.1 6.6 6.4 6.2 6.6 6.8 6.9 7.0 6.9 6.7 6.7 6.6 6.6 6.4 6.2 6.0 6.0 6.0 5.9 5.9 5.8 5.8 5.8 5.8 5.8 5.8 5.8 5.7 5.7 5.8 5.8 5.8
6.8 6.7 6.6 6.6 6.6 6.7 6.7 6.9 6.9 6.4 6.4 6.7 6.9 6.5 6.2 6.6 6.6 6.9 7.0 6.8 6.8 6.8 6.7 6.6 6.4 6.2 6.1 6.2 6.0 5.9 5.8 5.7 5.7 5.8 5.8 5.8 5.8 5.8 5.8 5.9 5.9 6.0 6.0
6.9 6.6 6.5 6.6 6.6 6.6 6.5 6.7 6.8 6.6 6.7 6.9 6.8 5.6 6.5 7.0 7.1 7.1 6.9 6.9 6.9 6.9 6.9 6.6 6.4 6.3 6.1 5.9 5.8 5.9 5.9 5.8 5.8 5.9 5.9 5.9 5.9 5.9 6.0 6.0 6.0 6.0 6.0
6.7 6.9 6.9 6.8 6.6 6.4 6.3 6.4 6.6 6.7 6.9 6.9 6.3 6.1 6.5 7.0 7.3 7.4 6.9 7.0 7.0 7.0 6.8 6.6 6.4 6.4 6.2 6.0 5.9 5.8 5.7 5.7 5.7 5.6 5.7 5.7 5.8 5.9 6.0 6.1 6.1 6.2 6.2
7.1 6.7 6.6 6.7 6.5 6.2 6.6 6.3 6.2 6.3 6.4 5.9 5.7 5.9 6.7 7.0 6.9 7.1 6.7 7.1 6.9 6.8 6.8 6.8 6.7 6.5 6.3 6.0 5.8 5.7 5.6 5.4 5.3 5.3 5.3 5.4 5.5 5.6 5.6 5.7 5.8 5.9 6.0
7.1 6.4 6.7 6.6 6.0 6.2 6.3 6.3 6.3 6.3 5.9 5.4 6.0 6.5 7.0 6.8 7.2 6.8 6.9 6.8 6.9 6.9 6.7 6.6 6.6 6.4 6.1 5.9 5.7 5.4 5.3 5.1 5.1 5.2 5.3 5.3 5.3 5.4 5.5 5.5 5.6 5.7 5.7
7.6 6.7 6.5 6.5 6.3 6.3 6.3 6.5 6.5 6.2 6.3 6.0 5.7 6.6 6.7 6.8 6.6 6.9 6.9 7.2 7.0 6.8 6.6 6.4 6.3 6.2 5.9 5.7 5.4 5.2 5.1 5.1 5.2 5.3 5.3 5.4 5.5 5.5 5.5 5.5 5.5 5.5 5.5
7.6 6.9 6.3 6.2 6.2 6.4 6.4 6.6 6.7 6.5 6.5 5.9 6.3 6.6 6.8 6.4 7.1 6.9 6.9 6.8 6.6 6.5 6.3 6.2 6.0 5.8 5.6 5.6 5.5 5.4 5.4 5.4 5.4 5.5 5.5 5.5 5.5 5.5 5.4 5.5 5.5 5.5 5.6
7.2 6.7 6.2 6.4 6.4 6.5 6.6 6.7 6.7 6.6 6.6 6.7 6.7 6.6 6.5 6.8 6.6 6.6 6.5 6.4 6.3 6.3 6.2 6.2 6.1 6.0 5.8 5.6 5.5 5.5 5.4 5.3 5.4 5.4 5.5 5.5 5.5 5.5 5.5 5.5 5.6 5.6 5.7
7.1 6.8 6.3 6.7 6.4 6.5 6.5 6.7 6.5 6.4 6.6 6.6 6.5 6.7 6.6 6.4 6.4 6.6 6.3 6.2 6.2 6.2 6.1 6.1 6.0 5.9 5.6 5.6 5.5 5.5 5.4 5.4 5.4 5.4 5.4 5.4 5.5 5.6 5.7 5.7 5.8 5.8 5.8
7.3 7.1 7.0 6.6 6.7 6.6 6.5 6.7 6.6 6.2 6.4 6.5 6.5 6.7 6.5 6.4 6.4 6.4 6.6 6.4 6.3 6.2 6.0 6.0 5.9 5.8 5.7 5.6 5.5 5.4 5.4 5.4 5.4 5.5 5.5 5.6 5.7 5.9 6.0 5.9 5.9 5.8 5.8
7.2 7.3 7.2 7.0 6.9 6.7 6.5 6.5 6.3 6.4 6.3 6.4 6.6 6.8 6.5 6.5 6.5 6.2 6.5 6.5 6.4 6.3 6.2 6.1 6.0 5.8 5.7 5.6 5.5 5.5 5.5 5.5 5.5 5.6 5.7 5.9 6.0 6.0 6.0 5.9 5.8 5.8 5.7
7.1 7.1 7.2 7.1 6.9 6.8 6.5 6.4 6.4 6.3 6.4 6.6 6.8 6.7 6.6 6.6 6.5 6.5 6.5 6.5 6.3 6.2 6.1 6.1 5.8 5.7 5.5 5.5 5.5 5.6 5.5 5.6 5.7 5.8 5.9 6.0 6.1 6.1 6.1 6.1 6.0 5.9 5.7
7.1 7.1 7.0 6.8 6.6 6.4 6.2 6.3 6.0 6.1 6.3 6.4 6.8 6.4 6.4 6.5 6.4 6.4 6.4 6.3 6.3 6.2 6.0 6.1 5.8 5.7 5.6 5.7 5.7 5.7 5.8 5.7 5.8 5.9 6.0 6.1 6.1 6.2 6.2 6.1 6.0 5.9 5.7
7.0 6.9 6.9 6.8 6.6 6.2 6.0 5.8 6.0 5.8 5.6 5.6 6.2 6.3 6.3 6.6 6.6 6.5 6.3 6.2 6.1 5.9 6.1 5.9 5.9 5.7 5.7 5.7 5.6 5.7 5.8 5.8 5.9 6.0 6.0 6.1 6.1 6.2 6.1 6.0 5.9 5.7 5.5
6.6 7.3 7.0 6.9 6.3 5.9 5.7 5.7 5.8 5.6 5.8 5.7 6.1 6.4 6.5 6.7 6.6 6.5 6.5 6.3 6.1 5.9 6.3 5.9 5.8 5.8 5.7 5.8 5.8 5.9 6.0 6.1 5.9 6.0 6.0 6.0 6.1 6.2 6.1 6.0 5.8 5.6 5.6
7.1 7.0 6.9 6.1 5.6 5.5 5.2 5.3 5.4 5.4 5.8 5.9 6.3 6.9 6.8 6.8 6.7 6.7 6.5 6.3 6.3 6.2 6.0 5.8 5.8 5.7 5.8 5.8 5.8 5.9 5.9 5.9 6.1 5.9 6.0 5.9 6.0 6.2 6.1 5.8 5.8 5.7 5.7
6.6 6.8 6.5 5.6 5.1 5.0 5.2 5.2 4.8 5.2 5.9 6.4 6.5 7.1 6.9 6.9 6.7 6.6 6.5 6.5 6.3 6.1 5.9 5.8 5.8 5.9 5.9 5.9 5.9 6.0 6.0 6.0 6.0 5.9 5.9 5.9 6.0 6.0 6.0 5.7 5.8 5.8 5.8
6.4 6.7 6.1 4.6 4.1 4.1 4.5 5.1 5.1 5.6 6.3 6.2 6.8 7.1 6.9 6.7 6.6 6.5 6.5 6.5 6.3 6.1 6.0 5.8 5.8 5.9 6.0 6.1 6.0 5.9 5.9 5.9 5.8 5.8 5.8 5.8 5.8 5.9 5.8 5.7 5.6 5.7 5.7
6.1 6.5 6.1 5.5 4.5 5.3 5.1 5.4 5.6 5.9 5.9 6.5 6.9 6.7 6.8 7.0 6.7 6.5 6.6 6.3 6.2 6.1 6.0 5.9 5.9 6.0 6.1 6.0 5.9 5.8 5.9 5.7 5.7 5.6 5.7 5.7 5.7 5.7 5.9 5.6 5.5 5.6 5.6
6.4 5.8 5.7 4.9 5.0 4.9 5.7 5.3 5.6 5.9 6.5 6.9 6.7 6.9 6.8 6.7 6.6 6.5 6.3 6.4 6.0 6.1 6.1 6.0 6.0 6.0 6.1 6.1 5.9 5.9 5.7 5.7 5.6 5.3 5.5 5.5 5.4 5.5 5.5 5.5 5.5 5.6 5.5
5.5 5.3 5.3 5.7 5.7 5.2 4.9 5.6 5.8 6.3 6.6 6.6 6.7 6.8 6.8 6.7 6.5 6.5 6.3 6.2 6.1 5.9 5.9 5.9 5.9 6.1 6.1 6.0 5.9 5.7 5.7 5.7 5.6 5.6 5.5 5.5 5.3 5.3 5.2 5.4 5.2 5.4 5.4
5.4 5.6 6.1 5.5 4.8 5.1 5.5 5.8 6.0 6.2 6.4 6.5 6.6 6.5 6.7 6.6 6.4 6.3 6.2 6.1 6.1 6.1 5.9 5.7 5.9 6.1 6.1 6.0 5.8 5.8 5.7 5.7 5.6 5.7 5.5 5.3 5.6 5.2 5.1 5.4 5.3 5.1 5.4
6.1 5.8 5.8 5.8 4.9 5.2 6.0 5.7 6.1 6.3 6.3 6.2 6.3 6.4 6.1 6.3 6.2 5.8 5.7 6.0 5.9 5.9 5.8 5.8 6.1 6.1 6.0 6.0 5.8 5.7 5.7 5.6 5.6 5.7 5.4 5.3 5.4 5.1 5.0 5.0 5.2 5.3 5.1
6.0 5.9 5.4 5.7 5.6 5.8 5.9 6.1 6.2 6.2 6.1 6.2 6.2 6.3 6.4 5.7 5.4 5.7 5.2 5.6 5.9 5.7 5.7 5.8 6.0 5.9 5.8 5.8 5.7 5.6 5.6 5.6 5.5 5.6 5.4 5.3 5.3 5.3 5.0 5.2 5.0 4.9 5.2
Wind_Speed
8 13 11 11 10 12 9 9 10 9 10 5 10 9 9 20 17 16 17 22 21 19 18 17 17 18 18 21 20 19 18 18 19 19 18 18 18 20 20 20 21 20 19
12 11 9 10 10 13 12 13 12 11 10 10 9 10 11 13 15 17 16 19 21 20 18 18 19 17 17 18 20 20 20 20 19 20 19 20 20 20 20 19 19 19 19
15 13 9 8 13 13 12 12 12 13 10 11 8 10 13 11 14 13 14 14 17 21 20 18 20 21 20 19 18 17 17 17 17 18 19 20 20 20 20 21 20 20 20
14 10 6 6 15 16 15 10 10 11 11 10 7 8 10 11 13 10 10 11 12 14 17 20 20 22 22 20 18 17 18 18 18 18 18 19 19 19 21 21 22 22 21
17 12 8 10 12 8 9 10 9 7 9 10 10 8 7 7 10 10 10 9 7 14 14 16 22 22 21 20 19 18 18 18 17 18 18 18 19 20 21 21 21 22 22
17 12 12 12 13 8 10 10 12 11 10 8 10 8 7 7 9 9 9 9 8 7 10 13 15 18 20 19 20 19 18 18 18 17 19 20 20 21 21 21 21 22 22
18 15 10 12 12 12 12 12 11 13 9 11 10 8 7 6 6 7 9 8 8 9 8 7 9 12 15 17 18 18 18 18 18 18 19 20 21 21 21 21 22 22 21
19 13 12 13 13 11 13 13 13 11 10 11 8 9 6 6 5 5 6 6 8 9 10 11 10 11 9 13 15 16 16 16 16 18 19 20 20 21 21 22 22 23 23
19 15 13 12 12 11 11 13 12 13 10 12 12 3 5 4 8 5 6 6 8 7 10 11 10 9 8 12 12 15 15 15 16 17 17 17 18 19 20 21 22 24 24
18 19 14 12 13 10 13 12 12 12 11 11 10 5 2 10 6 6 6 6 6 7 7 10 10 10 6 14 15 13 13 15 16 17 18 18 18 18 20 21 20 21 22
16 17 14 13 12 10 11 15 15 13 10 10 10 8 7 6 8 6 9 9 7 6 6 8 8 10 6 12 12 12 13 14 16 17 17 17 18 18 19 19 19 20 20
13 17 16 14 13 11 13 12 13 15 11 11 10 9 8 7 8 9 10 12 10 8 6 8 7 7 11 12 13 12 12 13 14 15 16 17 17 18 18 20 20 21 21
13 16 17 15 12 12 12 12 13 13 12 11 11 9 8 7 6 6 10 10 10 9 6 5 7 8 9 11 13 12 11 12 13 14 15 16 18 18 19 19 21 20 21
13 16 15 14 14 14 11 11 10 10 11 9 11 7 7 6 6 7 8 10 10 8 7 9 7 9 10 9 12 14 13 11 12 13 15 17 18 18 18 18 19 20 21
11 16 15 16 15 14 13 12 8 9 10 7 8 8 7 7 6 6 9 9 9 9 10 10 5 9 11 12 8 11 12 10 11 13 15 16 16 17 17 17 18 19 19
13 16 15 15 15 14 14 12 10 9 9 5 8 9 8 8 8 6 6 7 7 9 7 10 8 9 11 11 6 11 13 11 11 12 12 13 14 15 15 16 16 16 18
12 14 14 15 13 14 12 11 11 9 10 9 7 10 10 10 7 8 7 6 5 3 10 9 8 10 10 10 8 10 11 13 13 10 10 10 11 12 14 15 15 16 16
13 13 14 15 13 12 10 11 12 10 11 9 9 11 10 8 10 9 8 9 6 8 10 13 10 8 8 9 9 7 5 5 12 8 8 9 9 10 12 14 14 15 15
14 13 11 13 14 10 8 7 9 11 10 6 5 6 7 10 9 7 8 8 8 8 9 9 8 7 7 7 6 7 6 6 8 9 7 8 6 7 8 12 14 15 15
12 12 12 9 6 7 8 8 7 10 11 7 8 9 7 10 9 8 7 6 8 9 10 8 7 6 5 2 3 4 5 5 3 4 3 4 4 4 6 10 13 14 14
13 15 12 10 9 11 7 12 11 11 10 11 10 9 9 11 10 7 8 8 8 9 8 8 7 6 6 5 4 2 2 5 2 2 4 3 3 4 3 9 10 12 13
14 14 13 12 12 9 14 16 15 12 12 13 12 12 12 13 14 20 21 16 7 11 11 8 8 8 6 5 4 5 5 4 3 4 2 3 2 1 1 4 5 8 10
13 14 13 13 13 12 17 18 17 12 13 14 14 13 12 9 11 12 15 17 18 18 8 8 9 7 9 7 6 5 4 5 2 6 3 4 5 4 5 9 7 5 6
13 13 14 14 12 11 17 16 13 14 12 14 14 14 14 14 13 14 13 13 13 12 9 10 9 8 8 7 2 2 2 2 2 6 4 3 2 1 4 6 9 6 4
14 14 15 15 14 14 15 13 11 12 12 13 12 13 14 15 13 15 12 14 12 12 23 26 22 18 15 13 9 4 3 4 4 3 4 2 1 2 4 5 11 10 8
14 12 14 13 17 16 17 12 14 9 14 10 12 12 13 14 10 6 11 12 12 11 10 10 12 12 11 10 11 10 3 2 0 2 3 3 3 3 3 4 3 5 3
Wind_Direction
161 166 169 165 164 150 159 127 135 132 121 124 120 122 102 99 108 91 69 65 67 66 65 63 63 67 69 62 62 61 59 56 52 48 43 38 36 36 33 29 29 26 20
167 173 171 173 167 164 160 160 165 151 141 134 118 117 110 109 108 117 100 74 71 69 66 62 61 63 64 68 64 62 58 54 50 47 44 43 40 37 33 30 27 23 17
170 172 170 176 175 178 173 170 148 133 136 116 105 101 103 106 109 121 116 106 85 68 63 62 58 56 54 60 64 63 57 50 46 45 41 40 37 35 35 35 32 28 24
159 142 146 173 177 179 177 164 159 148 140 136 126 119 117 115 112 119 113 124 120 97 71 64 59 55 52 52 57 61 60 55 48 45 42 38 35 36 33 31 30 29 24
168 167 174 175 174 173 170 165 158 150 141 139 133 113 116 120 109 106 106 102 105 126 108 82 66 57 53 48 49 55 56 53 50 45 44 40 38 39 36 33 30 25 23
176 182 176 170 171 176 168 168 164 151 144 138 119 130 124 120 123 113 111 102 116 117 131 139 98 70 56 51 47 54 59 56 54 50 46 44 41 41 37 33 30 27 24
178 185 178 169 190 178 171 167 162 160 145 133 126 125 100 109 135 119 128 123 122 106 109 106 106 105 86 61 46 47 52 55 55 53 50 46 40 41 39 36 35 30 28
182 183 181 179 183 174 174 170 162 166 156 151 157 139 138 142 121 119 121 130 119 112 92 71 79 89 93 90 65 52 45 51 54 55 52 48 45 41 39 37 37 33 30
185 190 183 182 183 171 170 169 172 170 169 177 174 180 157 149 139 147 154 137 150 132 120 117 108 96 96 81 71 63 46 48 53 55 53 50 47 46 43 37 38 37 32
186 191 183 182 185 174 170 173 169 178 170 189 192 204 3 120 176 161 167 152 137 141 129 129 123 115 107 99 82 63 53 49 54 55 54 52 49 44 45 37 39 38 35
185 186 183 180 181 179 172 177 172 186 190 192 195 180 173 172 148 152 159 165 153 140 136 141 133 116 108 95 95 74 61 54 56 56 54 53 51 48 47 41 37 37 36
180 184 184 181 184 187 178 181 172 182 193 197 195 180 179 179 182 170 143 162 155 147 140 139 150 131 113 95 86 82 65 57 59 59 58 56 51 48 45 43 39 39 39
180 181 183 180 180 185 180 182 175 186 192 202 193 181 195 202 181 189 152 161 154 145 152 148 146 139 121 121 111 103 81 68 62 60 59 58 55 50 47 45 39 39 38
181 171 175 175 175 178 172 179 175 177 181 195 190 197 189 199 210 181 149 157 147 155 172 150 155 148 141 133 135 131 99 80 69 62 58 56 54 49 45 42 41 37 39
174 172 175 169 171 173 163 171 170 175 158 204 179 190 188 173 200 177 157 169 163 163 175 162 152 159 137 162 156 160 106 91 77 63 57 53 53 49 45 43 41 41 38
176 168 168 164 161 163 166 167 156 145 139 182 171 174 190 171 174 166 170 165 192 163 151 160 135 163 154 135 159 123 118 106 82 72 65 54 54 49 47 42 40 42 40
167 162 162 159 154 163 160 150 152 144 135 172 161 176 175 164 160 167 162 151 183 214 132 137 138 149 153 142 155 136 167 131 96 77 73 66 56 47 45 43 39 41 41
150 155 162 150 152 150 156 151 137 145 155 158 168 170 161 159 153 147 157 160 151 119 135 148 149 155 149 147 147 138 134 98 103 95 86 70 58 53 48 43 41 42 43
148 138 138 146 144 143 125 105 137 147 141 121 142 129 154 150 144 156 144 139 139 127 135 139 140 138 139 144 150 139 149 119 101 129 137 112 80 57 55 46 40 39 38
116 109 111 87 102 105 107 114 148 103 95 93 92 84 73 92 92 89 87 84 130 130 130 132 128 119 103 358 153 152 152 55 51 141 129 97 171 132 75 63 44 37 34
131 113 107 109 115 107 132 133 114 109 133 111 98 100 101 93 73 100 118 106 105 119 129 136 137 141 142 157 157 118 102 130 139 316 311 98 218 201 35 56 37 37 35
124 120 129 132 129 167 152 144 144 154 139 128 132 116 113 107 86 81 80 70 108 140 140 144 152 147 122 125 162 157 162 176 184 152 207 166 266 111 147 73 52 39 29
136 135 143 149 163 153 148 151 160 146 140 142 137 137 138 123 124 111 91 82 66 57 64 136 125 144 147 155 152 180 162 188 181 152 202 213 193 195 202 163 145 91 43
141 144 152 165 143 153 152 159 165 146 139 143 143 144 132 142 135 136 124 112 101 65 63 108 117 112 115 135 166 358 161 137 126 130 346 269 165 19 306 167 172 157 133
151 154 164 160 149 155 160 162 161 140 142 138 137 137 150 136 154 136 131 116 111 94 72 77 83 79 67 52 18 281 170 224 202 129 57 309 80 315 293 265 185 201 179
154 156 157 151 150 155 166 162 142 132 135 131 133 135 122 138 123 89 130 134 129 127 116 108 102 93 86 70 43 30 17 271 65 192 51 298 351 347 302 184 246 298 229